Weslaco, TX

8:25 AM CDT on July 26, 2016 (GMT -0500)
Weslaco

Weather History for KT65 - February, 2014

Change the Weather History Date:

Saturday, February 15, 2014

  Actual Average (KMFE) Record (KMFE)
Temperature  
Mean Temperature 66 °F 65 °F  
Max Temperature 79 °F 75 °F 93 °F (2016)
Min Temperature 52 °F 54 °F 35 °F (1883)
Degree Days  
Heating Degree Days 0 4  
Month to date heating degree days 69  
Since 1 July heating degree days 496  
Cooling Degree Days 0 3  
Month to date cooling degree days 43  
Year to date cooling degree days 105  
Growing Degree Days 16 (Base 50)    
Moisture  
Dew Point 57 °F    
Average Humidity 80    
Maximum Humidity 94    
Minimum Humidity 48    
Precipitation  
Precipitation 0.00 in 0.04 in 0.22 in (1978)
Month to date precipitation 0.65  
Year to date precipitation 1.70  
Sea Level Pressure  
Sea Level Pressure 30.06 in    
Wind  
Wind Speed 4 mph (SE)    
Max Wind Speed 15 mph    
Max Gust Speed 20 mph    
Visibility 6 miles    
Events Fog , Rain    
T = Trace of Precipitation, MM = Missing Value Source: NWS Daily Summary

Daily Weather History Graph

Daily Weather History Graph

Search for Another Location

Airport or City:

Trip Planner

Search our weather history database for the weather conditions in past years. The results will help you decide how hot, cold, wet, or windy it might be!

Date:

Astronomy

Feb. 15, 2014 Rise Set
Actual Time 7:07 AM CST 6:24 PM CST
Civil Twilight 6:43 AM CST 6:48 PM CST
Nautical Twilight 6:16 AM CST 7:15 PM CST
Astronomical Twilight 5:49 AM CST 7:42 PM CST
Moon 7:15 PM CST (2/15) 7:15 AM CST (2/15)
Length of Visible Light 12h 04m
Length of Day
11h 17m
Waxing Gibbous, 99% of the Moon is Illuminated
Feb 15
Waxing Gibbous
Feb 22
Last Quarter
Mar 1
New
Mar 8
First Quarter
Mar 16
Full

Hourly Weather History & Observations

Time (CST) Temp. Dew Point Humidity Pressure Visibility Wind Dir Wind Speed Gust Speed Precip Events Conditions
12:15 AM 57.9 °F 53.6 °F 86% 30.00 in 10.0 mi East 3.5 mph - N/A   Clear
12:35 AM 57.2 °F 53.6 °F 88% 30.01 in 10.0 mi Calm Calm - N/A   Clear
12:55 AM 55.9 °F 53.1 °F 90% 30.02 in 7.0 mi North 5.8 mph - N/A   Clear
1:15 AM 54.7 °F 51.8 °F 90% 30.03 in 7.0 mi North 3.5 mph - N/A   Clear
1:35 AM 55.6 °F 53.1 °F 91% 30.02 in 7.0 mi Calm Calm - N/A   Clear
1:55 AM 54.3 °F 51.6 °F 91% 30.02 in 7.0 mi Calm Calm - N/A   Clear
2:15 AM 54.3 °F 52.0 °F 92% 30.02 in 5.0 mi Calm Calm - N/A   Clear
2:35 AM 54.7 °F 52.3 °F 92% 30.02 in 7.0 mi Calm Calm - N/A   Clear
2:55 AM 54.1 °F 51.8 °F 92% 30.03 in 5.0 mi ENE 4.6 mph - N/A   Clear
3:15 AM 55.8 °F 53.6 °F 92% 30.03 in 7.0 mi East 4.6 mph - N/A   Clear
3:35 AM 54.9 °F 52.3 °F 91% 30.04 in 5.0 mi East 3.5 mph - N/A   Clear
3:55 AM 55.0 °F 52.7 °F 92% 30.03 in 5.0 mi Calm Calm - N/A   Clear
4:15 AM 54.9 °F 52.5 °F 92% 30.04 in 5.0 mi Calm Calm - N/A   Clear
4:35 AM 53.4 °F 51.1 °F 92% 30.04 in 4.0 mi Calm Calm - N/A   Clear
4:55 AM 53.1 °F 50.9 °F 92% 30.05 in 2.5 mi Calm Calm - N/A   Scattered Clouds
5:15 AM 52.5 °F 50.7 °F 94% 30.05 in 0.2 mi Calm Calm - N/A Fog Fog
5:35 AM 53.1 °F 51.1 °F 93% 30.06 in 0.2 mi Calm Calm - N/A Fog Fog
5:55 AM 52.9 °F 51.1 °F 94% 30.07 in 0.2 mi Calm Calm - N/A Fog Fog
6:15 AM 53.2 °F 51.3 °F 93% 30.08 in 0.2 mi Calm Calm - N/A Fog Fog
6:35 AM 53.4 °F 51.6 °F 94% 30.09 in 0.2 mi Calm Calm - N/A Fog Fog
6:55 AM 53.6 °F 51.8 °F 94% 30.09 in 0.2 mi Calm Calm - N/A Fog Fog
7:15 AM 53.2 °F 51.4 °F 94% 30.09 in 0.2 mi Calm Calm - N/A Fog Fog
7:35 AM 53.6 °F 51.8 °F 94% 30.10 in 0.2 mi NNE 3.5 mph - N/A Rain Light Rain
7:55 AM 53.6 °F 51.8 °F 94% 30.10 in 0.2 mi Calm Calm - N/A Fog Fog
8:15 AM 54.5 °F 52.7 °F 94% 30.11 in 0.2 mi Calm Calm - N/A Fog Fog
8:35 AM 54.7 °F 52.9 °F 94% 30.12 in 0.2 mi Calm Calm - N/A Fog Fog
8:55 AM 55.9 °F 54.3 °F 94% 30.13 in 0.2 mi Calm Calm - N/A Fog Fog
9:15 AM 57.2 °F 55.4 °F 94% 30.15 in 0.2 mi Calm Calm - N/A Fog Fog
9:35 AM 58.8 °F 57.0 °F 94% 30.15 in 0.2 mi Calm Calm - N/A Fog Fog
9:55 AM 59.5 °F 57.7 °F 94% 30.16 in 0.2 mi Calm Calm - N/A Fog Fog
10:15 AM 61.2 °F 59.4 °F 94% 30.16 in 2.5 mi SE 3.5 mph - N/A   Overcast
10:35 AM 62.8 °F 60.4 °F 92% 30.16 in 3.0 mi Calm Calm - N/A   Overcast
10:55 AM 65.8 °F 62.1 °F 88% 30.15 in 7.0 mi Calm Calm - N/A   Mostly Cloudy
11:15 AM 70.3 °F 62.8 °F 77% 30.14 in 10.0 mi ESE 5.8 mph - N/A   Mostly Cloudy
11:35 AM 71.6 °F 61.7 °F 71% 30.14 in 7.0 mi SSE 5.8 mph - N/A   Scattered Clouds
11:55 AM 71.2 °F 61.9 °F 72% 30.13 in 7.0 mi SSE 5.8 mph - N/A   Scattered Clouds
12:15 PM 72.1 °F 62.1 °F 70% 30.13 in 7.0 mi SSE 8.1 mph - N/A   Scattered Clouds
12:35 PM 72.0 °F 62.2 °F 71% 30.12 in 7.0 mi SSE 6.9 mph - N/A   Scattered Clouds
12:55 PM 70.3 °F 61.9 °F 74% 30.11 in 5.0 mi South 9.2 mph - N/A   Haze
1:15 PM 71.2 °F 61.7 °F 72% 30.09 in 7.0 mi South 4.6 mph - N/A   Overcast
1:35 PM 74.1 °F 61.7 °F 65% 30.09 in 7.0 mi SSE 9.2 mph - N/A   Mostly Cloudy
1:55 PM 75.4 °F 61.5 °F 62% 30.07 in 10.0 mi SSE 8.1 mph - N/A   Mostly Cloudy
2:15 PM 76.5 °F 61.0 °F 59% 30.06 in 7.0 mi SE 10.4 mph 16.1 mph N/A   Scattered Clouds
2:35 PM 77.0 °F 61.0 °F 58% 30.05 in 7.0 mi SE 10.4 mph 16.1 mph N/A   Scattered Clouds
2:55 PM 77.7 °F 60.6 °F 55% 30.04 in 7.0 mi SE 10.4 mph - N/A   Clear
3:15 PM 78.6 °F 60.6 °F 54% 30.04 in 7.0 mi SSE 11.5 mph 17.3 mph N/A   Clear
3:35 PM 79.0 °F 60.6 °F 53% 30.03 in 7.0 mi South 15.0 mph 18.4 mph N/A   Clear
3:55 PM 79.7 °F 59.9 °F 51% 30.02 in 7.0 mi SE 10.4 mph 17.3 mph N/A   Clear
4:15 PM 79.5 °F 59.2 °F 50% 30.02 in 7.0 mi SSE 12.7 mph 17.3 mph N/A   Clear
4:35 PM 79.0 °F 57.9 °F 48% 30.02 in 10.0 mi SSE 15.0 mph - N/A   Clear
4:55 PM 78.3 °F 57.9 °F 49% 30.01 in 10.0 mi SSE 12.7 mph 16.1 mph N/A   Clear
5:15 PM 77.4 °F 58.5 °F 52% 30.02 in 7.0 mi SE 12.7 mph 19.6 mph N/A   Clear
5:35 PM 76.5 °F 58.6 °F 54% 30.02 in 7.0 mi SSE 11.5 mph - N/A   Clear
5:55 PM 74.8 °F 59.2 °F 58% 30.02 in 7.0 mi SSE 11.5 mph 18.4 mph N/A   Clear
6:15 PM 73.2 °F 59.5 °F 62% 30.02 in 7.0 mi SSE 11.5 mph - N/A   Clear
6:35 PM 71.8 °F 59.9 °F 66% 30.02 in 10.0 mi SSE 12.7 mph - N/A   Clear
6:55 PM 70.5 °F 60.1 °F 69% 30.03 in 10.0 mi SSE 10.4 mph 17.3 mph N/A   Clear
7:15 PM 69.8 °F 60.4 °F 72% 30.04 in 10.0 mi SSE 10.4 mph - N/A   Clear
7:35 PM 68.9 °F 60.6 °F 75% 30.04 in 10.0 mi SSE 9.2 mph - N/A   Clear
7:55 PM 67.6 °F 60.4 °F 78% 30.05 in 10.0 mi SSE 10.4 mph - N/A   Clear
8:15 PM 67.1 °F 60.8 °F 80% 30.05 in 10.0 mi SSE 9.2 mph - N/A   Clear
8:35 PM 66.2 °F 60.3 °F 81% 30.06 in 10.0 mi SSE 6.9 mph - N/A   Clear
8:55 PM 65.5 °F 60.3 °F 83% 30.06 in 10.0 mi SE 5.8 mph - N/A   Clear
9:15 PM 64.4 °F 59.7 °F 85% 30.07 in 10.0 mi SE 4.6 mph - N/A   Clear
9:35 PM 64.0 °F 59.9 °F 86% 30.06 in 7.0 mi SE 5.8 mph - N/A   Clear
9:55 PM 64.0 °F 60.3 °F 87% 30.06 in 7.0 mi SSE 9.2 mph - N/A   Scattered Clouds
10:15 PM 63.9 °F 60.6 °F 89% 30.06 in 7.0 mi SSE 10.4 mph - N/A   Scattered Clouds
10:35 PM 63.9 °F 60.8 °F 90% 30.06 in 7.0 mi SSE 10.4 mph - N/A   Scattered Clouds
10:55 PM 64.0 °F 61.0 °F 90% 30.06 in 7.0 mi SSE 10.4 mph - N/A   Scattered Clouds
11:15 PM 63.9 °F 60.8 °F 90% 30.05 in 7.0 mi SSE 6.9 mph - N/A   Scattered Clouds
11:35 PM 63.7 °F 60.8 °F 90% 30.05 in 7.0 mi SSE 8.1 mph - N/A   Clear
11:55 PM 63.5 °F 60.8 °F 91% 30.04 in 7.0 mi SSE 10.4 mph - N/A   Clear